Location: Newark
(25.6108°S, 54.5803°W)
Time: 04:59:28
(UTC+00:00)

deb Explorer IX - Pass Details

Date: 02 November 2020
Orbit: 538 x 1104 km, 38.8° (Epoch: 29 November)

Event Time Altitude Azimuth Distance (km) Brightness Sun altitude
Rises 19:17:47 0° 270° (W) 3,685 ? 34.1°
Reaches altitude 10° 19:20:55 10° 260° (W) 2,649 ? 33.4°
Maximum altitude 19:26:24 30° 200° (SSW) 1,468 ? 32.2°
Drops below altitude 10° 19:31:13 10° 138° (SE) 2,300 ? 31.1°
Sets 19:33:46 0° 127° (SE) 3,130 ? 30.5°
